Change the Weather History Date:

Wednesday, April 3, 2013

  Actual Average Record
Temperature  
Mean Temperature 59 °F 60 °F  
Max Temperature 65 °F 73 °F 91 °F (1946)
Min Temperature 53 °F 47 °F 28 °F (1992)
Degree Days  
Heating Degree Days 6 6  
Month to date heating degree days 12 18  
Since 1 July heating degree days 2171 2427  
Cooling Degree Days 0 1  
Month to date cooling degree days 3 3  
Year to date cooling degree days 41 25  
Growing Degree Days 8 (Base 50)    
Moisture  
Dew Point 30 °F    
Average Humidity 45    
Maximum Humidity 67    
Minimum Humidity 23    
Precipitation  
Precipitation T in 0.10 in 1.51 in (1998)
Month to date precipitation 0.92 0.29  
Year to date precipitation 11.29 11.21  
Sea Level Pressure  
Sea Level Pressure 30.18 in    
Wind  
Wind Speed 8 mph (NE)    
Max Wind Speed 16 mph    
Max Gust Speed 24 mph    
Visibility 10 miles    
Events Rain    
T = Trace of Precipitation, MM = Missing Value Source: NWS Daily Summary

Daily Weather History Graph

Daily Weather History Graph

Search for Another Location

Airport or City:

Trip Planner

Search our weather history database for the weather conditions in past years. The results will help you decide how hot, cold, wet, or windy it might be!

Date:

Astronomy

Apr. 03, 2013 Rise Set
Actual Time 7:08 AM EDT 7:46 PM EDT
Civil Twilight 6:43 AM EDT 8:12 PM EDT
Nautical Twilight 6:14 AM EDT 8:41 PM EDT
Astronomical Twilight 5:43 AM EDT 9:12 PM EDT
Moon 2:30 AM EDT (4/3) 1:14 PM EDT (4/3)
Length of Visible Light 13h 28m
Length of Day
12h 38m
Last Quarter, 45% of the Moon is Illuminated
Apr 3
Last Quarter
Apr 10
New
Apr 18
First Quarter
Apr 25
Full
May 2
Last Quarter

Hourly Weather History & Observations

Time (EDT) Temp. Dew Point Humidity Pressure Visibility Wind Dir Wind Speed Gust Speed Precip Events Conditions
12:56 AM 57.9 °F 45.0 °F 62% 30.09 in 10.0 mi SSW 6.9 mph - N/A   Mostly Cloudy
1:56 AM 57.0 °F 46.0 °F 67% 30.09 in 10.0 mi Calm Calm - N/A   Mostly Cloudy
2:56 AM 59.0 °F 39.9 °F 49% 30.08 in 10.0 mi North 8.1 mph 16.1 mph N/A   Partly Cloudy
3:56 AM 55.9 °F 39.9 °F 55% 30.09 in 10.0 mi North 5.8 mph - N/A   Partly Cloudy
4:56 AM 55.9 °F 28.0 °F 34% 30.10 in 10.0 mi NNE 8.1 mph 17.3 mph N/A   Overcast
5:56 AM 55.0 °F 23.0 °F 29% 30.12 in 10.0 mi NNE 6.9 mph - N/A   Scattered Clouds
6:56 AM 54.0 °F 24.1 °F 31% 30.15 in 10.0 mi NE 5.8 mph - N/A   Partly Cloudy
7:56 AM 54.0 °F 25.0 °F 33% 30.20 in 10.0 mi NE 11.5 mph - N/A   Mostly Cloudy
8:56 AM 54.0 °F 23.0 °F 30% 30.21 in 10.0 mi NE 10.4 mph 19.6 mph N/A   Mostly Cloudy
9:56 AM 55.0 °F 19.9 °F 25% 30.22 in 10.0 mi NE 10.4 mph 19.6 mph N/A   Mostly Cloudy
10:56 AM 57.0 °F 19.9 °F 24% 30.23 in 10.0 mi NE 11.5 mph - N/A   Mostly Cloudy
11:56 AM 57.9 °F 21.0 °F 24% 30.24 in 10.0 mi NE 11.5 mph 17.3 mph N/A   Mostly Cloudy
12:56 PM 60.1 °F 23.0 °F 24% 30.22 in 10.0 mi East 11.5 mph - N/A   Mostly Cloudy
1:56 PM 62.1 °F 24.1 °F 23% 30.20 in 10.0 mi NE 8.1 mph - N/A   Mostly Cloudy
2:56 PM 63.0 °F 26.1 °F 25% 30.18 in 10.0 mi ENE 9.2 mph - N/A   Mostly Cloudy
3:56 PM 63.0 °F 26.1 °F 25% 30.18 in 10.0 mi NE 6.9 mph - N/A   Mostly Cloudy
4:56 PM 64.0 °F 28.0 °F 26% 30.18 in 10.0 mi NE 5.8 mph - N/A   Mostly Cloudy
5:56 PM 63.0 °F 27.0 °F 26% 30.17 in 10.0 mi NE 8.1 mph - N/A   Mostly Cloudy
6:56 PM 62.1 °F 27.0 °F 26% 30.18 in 10.0 mi East 6.9 mph - N/A   Mostly Cloudy
7:56 PM 60.1 °F 30.9 °F 33% 30.19 in 10.0 mi East 6.9 mph - N/A   Mostly Cloudy
8:56 PM 59.0 °F 30.9 °F 35% 30.20 in 10.0 mi East 8.1 mph - N/A   Overcast
9:56 PM 57.9 °F 30.9 °F 36% 30.22 in 10.0 mi East 6.9 mph - 0.00 in   Overcast
10:56 PM 57.0 °F 34.0 °F 42% 30.25 in 10.0 mi ENE 4.6 mph - 0.00 in Rain Light Rain
11:56 PM 54.0 °F 41.0 °F 62% 30.23 in 10.0 mi East 5.8 mph - 0.00 in Rain Light Rain